Location: Leeds
(37.2390°N, 113.3580°W)
Time: 10:05:01
(UTC-07:00)

ISS - All Passes

Search period start: 23 November 2014 00:00
Search period end: 03 December 2014 00:00
Orbit: 408 x 417 km, 51.6° (Epoch: 23 November)

Date Brightness Start Highest point End Pass type
(mag) Time Alt. Az. Time Alt. Az. Time Alt. Az.
23 Nov - 00:00:00 15° E 23:59:45 16° E 00:00:51 10° E night (unlit)
23 Nov - 01:31:45 10° WSW 01:34:47 34° NW 01:37:50 10° NNE night (unlit)
23 Nov - 06:25:49 10° NNW 06:28:05 17° NNE 06:30:20 10° ENE visible
23 Nov - 08:01:44 10° NW 08:05:00 66° SW 08:08:17 10° SE daylight
23 Nov - 23:07:46 10° SE 23:08:46 11° SE 23:09:46 10° ESE night (unlit)
24 Nov - 00:41:45 10° WSW 00:45:00 62° NW 00:48:16 10° NE night (unlit)
24 Nov - 02:20:46 10° NW 02:22:12 12° NNW 02:23:38 10° N night (unlit)
24 Nov - 05:36:39 10° N 05:38:06 12° NNE 05:39:33 10° NE visible
24 Nov - 07:12:01 10° NW 07:15:17 63° NE 07:18:34 10° ESE daylight
24 Nov - 08:50:29 10° WSW 08:51:32 11° SW 08:52:35 10° SW daylight
24 Nov - 23:52:00 10° SW 23:55:15 66° SE 23:58:31 10° NE night (unlit)
25 Nov - 01:29:56 10° WNW 01:32:11 17° NNW 01:34:26 10° NNE night (unlit)
25 Nov - 06:22:23 10° NW 06:25:27 34° NE 06:28:30 10° ESE visible
25 Nov - 07:59:22 10° W 08:01:56 21° SW 08:04:30 10° S daylight
25 Nov - 23:02:33 10° SSW 23:05:31 32° SE 23:08:30 10° ENE night (unlit)
26 Nov - 00:39:23 10° W 00:42:11 25° NNW 00:44:58 10° NNE night (unlit)
26 Nov - 05:32:50 10° NNW 05:35:29 22° NNE 05:38:07 10° E visible
26 Nov - 07:09:06 10° WNW 07:12:14 41° SW 07:15:21 10° SSE daylight
26 Nov - 22:13:34 10° S 22:15:48 17° SE 22:18:02 10° E night (unlit)
26 Nov - 23:49:04 10° WSW 23:52:12 41° NW 23:55:20 10° NE night (unlit)
27 Nov - 01:29:10 10° NNW 01:29:33 10° NNW 01:29:55 10° N night (unlit)
27 Nov - 04:43:22 10° NNW 04:45:24 15° NNE 04:47:25 10° ENE visible
27 Nov - 06:19:06 10° NW 06:22:24 84° SW 06:25:42 10° SE visible
27 Nov - 22:58:57 10° SW 23:02:14 79° NW 23:05:32 10° NE night (unlit)
28 Nov - 00:37:34 10° NW 00:39:20 14° NNW 00:41:05 10° N night (unlit)
28 Nov - 03:54:09 10° N 03:55:11 11° NNE 03:56:13 10° NE night (unlit)
28 Nov - 05:29:14 10° NW 05:32:27 50° NE 05:35:40 10° ESE visible
28 Nov - 07:06:58 10° W 07:08:46 14° SW 07:10:34 10° SSW daylight
28 Nov - 22:09:06 10° SSW 22:12:18 51° SE 22:15:30 10° ENE night (unlit)
28 Nov - 23:46:40 10° WNW 23:49:07 19° NNW 23:51:35 10° NNE night (unlit)
29 Nov - 04:39:27 10° NNW 04:42:23 29° NNE 04:45:18 10° E visible
29 Nov - 06:16:08 10° WNW 06:18:57 26° SW 06:21:45 10° S visible
29 Nov - 21:19:36 10° S 21:22:23 26° SE 21:25:10 10° ENE night (unlit)
29 Nov - 22:56:00 10° W 22:58:56 29° NNW 23:01:53 10° NNE night (unlit)
30 Nov - 03:49:44 10° NNW 03:52:11 19° NNE 03:54:37 10° ENE night (unlit)
30 Nov - 05:25:47 10° WNW 05:29:01 53° SW 05:32:13 10° SSE visible
30 Nov - 20:30:46 10° SSE 20:32:29 14° SE 20:34:12 10° E night (unlit)
30 Nov - 22:05:33 10° WSW 22:08:46 51° NW 22:12:00 10° NE night (unlit)
30 Nov - 23:44:56 10° NW 23:46:01 11° NNW 23:47:06 10° N night (unlit)
01 Dec - 03:00:09 10° N 03:01:52 13° NNE 03:03:34 10° NE night (unlit)
01 Dec - 04:35:39 10° NW 04:38:57 76° NE 04:42:14 10° SE visible
01 Dec - 21:15:21 10° SW 21:18:38 81° SE 21:21:56 10° NE night (unlit)
01 Dec - 22:53:34 10° WNW 22:55:37 15° NNW 22:57:40 10° NNE night (unlit)
02 Dec - 03:45:38 10° NW 03:48:46 40° NE 03:51:53 10° ESE night (unlit)
02 Dec - 05:22:52 10° W 05:25:10 18° SW 05:27:27 10° S visible
02 Dec - 20:25:26 10° SSW 20:28:31 39° SE 20:31:37 10° ENE night (unlit)
02 Dec - 22:02:34 10° W 22:05:14 22° NNW 22:07:54 10° NNE night (unlit)
